Location: Newark
(42.0275°N, 4.0028°W)
Time: 14:07:59
(UTC+00:00)

X-37B - Visible Passes

Search period start: 18 September 2020 00:00
Search period end: 28 September 2020 00:00
Orbit: 386 x 387 km, 45.0° (Epoch: 15 September)

Date Brightness Start Highest point End Pass type
(mag) Time Alt. Az. Time Alt. Az. Time Alt. Az.
18 Sep 3.6 03:25:04 17° ENE 03:25:04 17° ENE 03:25:53 10° ENE visible
18 Sep 1.3 04:57:20 17° WNW 04:59:35 47° N 05:02:40 10° E visible
19 Sep 1.8 04:01:27 41° NNE 04:01:27 41° NNE 04:03:59 10° ENE visible
20 Sep 1.1 04:37:52 30° NW 04:39:08 54° N 04:42:16 10° E visible
21 Sep 3.0 03:42:05 23° ENE 03:42:05 23° ENE 03:43:33 10° E visible
21 Sep 0.5 05:14:22 12° WNW 05:17:14 78° SSW 05:20:25 10° ESE visible
22 Sep 0.7 04:18:40 71° NNE 04:18:40 71° NNE 04:21:50 10° E visible
23 Sep 4.1 03:23:04 11° E 03:23:04 11° E 03:23:09 10° E visible
23 Sep 0.9 04:55:22 28° W 04:56:39 46° SSW 04:59:42 10° SE visible
24 Sep 2.7 03:59:55 24° ESE 03:59:55 24° ESE 04:01:18 10° ESE visible
24 Sep 2.5 05:32:24 10° WSW 05:34:23 15° SW 05:36:21 10° S visible
25 Sep 2.2 04:36:54 23° S 04:36:54 23° S 04:38:44 10° SSE visible
